Location: Ash Swamp
(41.5170°N, 74.6157°W)
Time: 17:19:43
(UTC+00:00)

Cosmos 1674 Rocket - Pass Details

Date: 14 July 2020
Orbit: 602 x 631 km, 82.5° (Epoch: 05 August)

Event Time Altitude Azimuth Distance (km) Brightness Sun altitude
Rises 07:33:48 0° 353° (N) 2,880 7.7 -18.0°
Reaches altitude 10° 07:36:03 10° 355° (N) 1,967 6.8 -17.8°
Maximum altitude 07:40:24 79° 82° (E) 622 3.6 -17.3°
Enters shadow 07:43:27 19° 167° (SSE) 1,451 5.1 -16.9°
